Location: Calvera
(42.3882°N, 0.6137°E)
Time: 19:26:01
(UTC+00:00)

USA 234 - Pass Details

Date: 28 October 2020
Orbit: 1100 x 1108 km, 123.0° (Epoch: 13 November)

Event Time Altitude Azimuth Distance (km) Brightness Sun altitude
Rises 02:52:59 0° 47° (NE) 3,925 6.9 -39.5°
Reaches altitude 10° 02:55:34 10° 42° (NE) 2,966 6.1 -39.1°
Enters shadow 02:59:28 34° 17° (NNE) 1,738 4.4 -38.4°
